Regional Weather Roundup
Issued by NWS Cleveland, OH

Home | Current Version | Previous Version | Graphics & Text | Print | Product List | Glossary On
Versions: 1 2 3 4 5 6 7 8 9 10 11 12 13 14 15 16 17 18 19 20 21 22 23 24 25 26 27 28 29 30 31 32 33 34 35 36 37 38 39 40 41 42 43 44 45 46 47 48 49 50
000
ASUS41 KCLE 231712
RWRCLE
OHIO REGIONAL WEATHER ROUNDUP
NATIONAL WEATHER SERVICE WILMINGTON, OH
100 PM EDT TUE AUG 23 2016

NOTE: "FAIR" INDICATES FEW OR NO CLOUDS BELOW 12,000 FEET WITH NO
SIGNIFICANT WEATHER AND/OR OBSTRUCTIONS TO VISIBILITY.

OHZ001>008-015>018-024>027-034-035-043-044-231800-
   NORTHWEST OHIO

CITY           SKY/WX    TMP DP  RH WIND       PRES   REMARKS
DEFIANCE       FAIR      78  57  48 S9        30.28F
FINDLAY        FAIR      80  57  45 SW10      30.28F
TOLEDO EXPRESS FAIR      78  58  49 S7        30.28S
TOLEDO EXEC    FAIR      78  58  49 S12G21    30.29S
LIMA           FAIR      77  61  57 VRB6      30.29F
$$

OHZ009>014-019>023-028>033-038-089-231800-
   NORTHEAST OHIO

CITY           SKY/WX    TMP DP  RH WIND       PRES   REMARKS
CLE-HOPKINS    FAIR      80  54  40 SW7       30.30F
CLE-LAKEFRONT  FAIR      81  53  37 VRB3      30.27F
CUY CO. ARPT   MOSUNNY   81  57  44 SW6       30.30F
LORAIN-ELYRIA  FAIR      77  55  46 W9        30.30F
ASHTABULA      FAIR      76  58  53 S8        30.31F
AKRON-CANTON   FAIR      78  53  41 SW13      30.31F
WOOSTER        FAIR      75  57  53 MISG      30.32S
MANSFIELD      FAIR      78  56  46 S7        30.31F
YOUNGSTOWN     FAIR      78  55  44 VRB3      30.31F
$$

OHZ042-051>053-060>062-070>072-077>081-231800-
  SOUTHWEST OHIO

CITY           SKY/WX    TMP DP  RH WIND       PRES   REMARKS
CINC-COVINGTON FAIR      78  59  51 S7        30.29F
CINC-LUNKEN    FAIR      79  60  52 VRB3      30.29F
HAMILTON       FAIR      80  58  46 VRB6      30.29F
DAYTON         PTSUNNY   78  57  48 SE3       30.31F
WRIGHT-PAT AFB FAIR      78  56  46 S7        30.29F
DAYTON GENERAL FAIR      78  58  49 S6        30.29F
WILMINGTON     FAIR      76  59  55 VRB5      30.30F
$$

OHZ036-037-039>041-045>050-054>059-063>069-073>076-082>088-231800-
  CENTRAL AND SOUTHEAST OHIO

CITY           SKY/WX    TMP DP  RH WIND       PRES   REMARKS
COLUMBUS       FAIR      78  58  49 VRB7      30.30F
OSU AIRPORT    FAIR      78  56  46 MISG      30.30F
BOLTON FIELD   SUNNY     77  61  57 S7        30.31F
RICKENBACK AFB FAIR      77  57  49 CALM      30.29F
NEWARK         FAIR      78  56  46 VRB3      30.30F
MARION         FAIR      76  55  48 SW9       30.31F
LANCASTER      FAIR      79  54  41 CALM      30.30F
ZANESVILLE     FAIR      77  55  46 SE5       30.31F
NEW PHILLY     FAIR      80  54  40 VRB3      30.31F
$$




USA.gov is the U.S. government's official web portal to all federal, state and local government web resources and services.